AirNav   Air Wisconsin Airman Trainee
 
 746 users online  

MO46 Walker Airport
Louisana, Missouri, USA

GOING TO LOUISANA?


FAA INFORMATION EFFECTIVE 28 MARCH 2019

Location

FAA Identifier: MO46
Lat/Long: 39-31-13.1659N / 091-10-18.5084W
39-31.219432N / 091-10.308473W
39.5203239 / -91.1718079
(estimated)
Elevation: 510 ft. / 155 m (estimated)
Variation: 02E (1995)
From city: 7 miles NW of LOUISANA, MO
Time zone: UTC -5 (UTC -6 during Standard Time)
Zip code: 63353

Airport Operations

Airport use: Private use. Permission required prior to landing
Activation date: 12/1999
Control tower: no
ARTCC: KANSAS CITY CENTER
FSS: COLUMBIA FLIGHT SERVICE STATION
Attendance: UNATNDD
Segmented circle: no

Airport Communications

WX AWOS-3 at HAE (18 nm NW): 120.775 (573-221-2584)
WX AWOS-3 at PPQ (20 nm E): 118.525 (217-285-1428)

Nearby radio navigation aids

VOR radial/distance  VOR name  Freq  Var
UINr161/20.3QUINCY VORTAC113.6005E

Airport Services

Runway Information

Runway 2/20

Dimensions: 2000 x 65 ft. / 610 x 20 m
Surface: turf
RUNWAY 2  RUNWAY 20
Traffic pattern: leftleft
Obstructions: none30 ft. pline, 300 ft. from runway

Airport Ownership and Management from official FAA records

Ownership: Privately-owned
Owner: RICHARD O. WALKER
16329 PIKE RD 114
LOUISIANA, MO 63353
Phone 573-754-4892
Manager: RICHARD O. WALKER
16329 PIKE RD 114
LOUISIANA, MO 63353
Phone 573-754-4892

Airport Operational Statistics

Aircraft based on the field: 1
Single engine airplanes: 1
    

Instrument Procedures

There are no published instrument procedures at MO46.

Some nearby airports with instrument procedures:

H19 - Bowling Green Municipal Airport (9 nm S)
KHAE - Hannibal Regional Airport (18 nm NW)
KPPQ - Pittsfield Penstone Municipal Airport (20 nm E)
KUIN - Quincy Regional Airport-Baldwin Field (25 nm N)
K52 - Cpt Ben Smith Airfield - Monroe City (27 nm W)
 
Loc | Ops | Rwys | IFR | FBO | Links
Com | Nav | Svcs | Stats | Notes

Kansas City Aviation Department
 
Area around MO46 (Walker Airport)
 
Road maps at: MapQuest Bing Google
 
Aerial photo
No photo
 
Sectional chart

 
Airport distance calculator
Flying to Walker Airport? Find the distance to fly.

From to MO46

Sunrise and sunset
Times for 18-Apr-2019
 Local
(UTC-5)
 Zulu
(UTC)
Morning civil twilight05:5610:56
Sunrise06:2411:24
Sunset19:4400:44
Evening civil twilight20:1201:12

Current date and time
Zulu (UTC)  18-Apr-2019 12:02:14
Local (UTC-5)  18-Apr-2019 07:02:14
 
METAR
KHAE 
18nm NW 
181155Z AUTO 33010G19KT 10SM BKN012 OVC024 09/06 RMK AO2
KPPQ 
19nm E 
181155Z AUTO 33010KT 7SM OVC005 11/11 A2964 RMK AO2 60048 70048 T01100106 10195 20110
KUIN 
26nm N 
181154Z AUTO 33013KT 10SM SCT011 BKN026 OVC033 09/07 A2966 RMK AO2 RAE1013 SLP040 P0000 60133 70133 T00890067 10206 20089 $
KI63 
33nm NE 
181135Z AUTO 33012KT 10SM BKN007 OVC012 09/08 A2962 RMK AO2 T00900083
TAF
KUIN 
26nm N 
181120Z 1812/1912 32013KT P6SM -SHRA BKN008 OVC017 FM181300 33013G19KT P6SM OVC015 FM181900 33015G22KT P6SM BKN035 FM190500 35012G24KT P6SM BKN027 FM190800 36013G27KT P6SM BKN018
NOTAMs
Click for the latest NOTAMs
NOTAMs are issued by the DoD/FAA and will open in a separate window not controlled by AirNav.

 

 
 

Would you like to see your business listed on this page?

 If your business provides an interesting product or service to pilots, flight crews, aircraft, or users of the Walker Airport, you should consider listing it here.  To start the listing process, click on the button below
 
Add a business
 

Other Pages about Walker Airport

Update a link
 
Copyright © AirNav, LLC. All rights reserved. Privacy Policy  Contact